User: anonymous   Login
Location: *
(0.1100°N, 5.5000°E)
Time: 01:58:22
(UTC+00:00)
Language:

FUSE - Orbit

View from above orbital plane
View from above orbital plane
View from above satellite
View from above satellite

Ground track
Ground track

The orbit data is extracted from the following two-line orbital elements,

1 25791U 99035A   23084.16374387  .00000879  00000-0  20467-3 0  9992
2 25791  24.9851  64.3200 0010062 248.4972 111.4463 14.43097765253270
Epoch (UTC): 25 March 2023 03:55:47
Eccentricity: 0.0010062
inclination: 24.9851°
perigee height: 741 km
apogee height: 755 km
right ascension of ascending node: 64.3200°
argument of perigee: 248.4972°
revolutions per day: 14.43097765
mean anomaly at epoch: 111.4463°
orbit number at epoch: 25327

The dashed part of the orbit path shows where the satellite is in the earth's shadow,  

DLR